Location: Riverside
(39.1734°N, 77.8561°W)
Time: 07:28:37
(UTC+00:00)

OTV 5 (USA 277) - Pass Details

Date: 21 October 2019
Orbit: 310 x 324 km, 54.5° (Epoch: 17 October)

Event Time Altitude Azimuth Distance (km) Brightness Sun altitude
Exits shadow 09:52:34 55° 137° (SE) 393 ? -19.0°
Drops below altitude 10° 09:54:47 10° 135° (SE) 1,225 ? -18.6°
Sets 09:56:44 0° 135° (SE) 2,050 ? -18.2°
